ASTRA 2G

Last updated on Sun Jun 21 2026 00:03:06 GMT+0000 (Coordinated Universal Time)

1 40364U 14089A 26171.32626139 .00000145 00000+0 00000+0 0 9996 2 40364 0.0464 6.7607 0004720 60.8751 346.5362 1.00269481 41992
UTC large
Height (km)
Speed (km/s)
/
Latitude / Longitude
Inclination (degrees)
Orbital Period (minutes)
Azimuth
Elevation
Range (km)
Doppler Factor

Next 0 passes for location: London (51.5072 / 0.1276)

No passes found over London.
ASTRA 2G